TimeMDT,TemperatureF,Dew PointF,Humidity,Sea Level PressureIn,VisibilityMPH,Wind Direction,Wind SpeedMPH,Gust SpeedMPH,PrecipitationIn,Events,Conditions,WindDirDegrees,DateUTC
12:53 AM,68.0,54.0,61,29.93,10.0,SW,9.2,-,N/A,,Clear,220,2013-08-05 06:53:00
1:53 AM,66.0,54.0,65,29.91,10.0,WNW,9.2,-,N/A,,Clear,290,2013-08-05 07:53:00
2:53 AM,63.0,54.0,72,29.90,10.0,Calm,Calm,-,N/A,,Clear,0,2013-08-05 08:53:00
3:53 AM,62.1,55.0,78,29.88,10.0,South,9.2,-,N/A,,Clear,180,2013-08-05 09:53:00
4:53 AM,62.1,54.0,75,29.86,10.0,South,11.5,-,N/A,,Clear,190,2013-08-05 10:53:00
5:53 AM,62.1,54.0,75,29.88,10.0,South,9.2,-,N/A,,Clear,190,2013-08-05 11:53:00
6:53 AM,66.0,53.1,63,29.87,10.0,SSW,10.4,-,N/A,,Clear,210,2013-08-05 12:53:00
7:53 AM,73.0,55.9,55,29.88,10.0,SSW,12.7,-,N/A,,Clear,200,2013-08-05 13:53:00
8:53 AM,75.9,57.0,52,29.91,10.0,WNW,10.4,-,N/A,,Clear,300,2013-08-05 14:53:00
9:53 AM,79.0,55.9,45,29.90,10.0,NW,11.5,-,N/A,,Clear,310,2013-08-05 15:53:00
10:53 AM,80.1,55.0,42,29.91,10.0,WNW,9.2,-,N/A,,Clear,300,2013-08-05 16:53:00
11:53 AM,84.0,53.1,34,29.91,10.0,Variable,3.5,-,N/A,,Clear,0,2013-08-05 17:53:00
12:53 PM,86.0,48.9,28,29.88,10.0,WNW,15.0,20.7,N/A,,Clear,300,2013-08-05 18:53:00
1:53 PM,86.0,52.0,31,29.87,10.0,NNW,11.5,-,N/A,,Clear,340,2013-08-05 19:53:00
2:53 PM,86.0,52.0,31,29.85,10.0,North,9.2,19.6,N/A,,Clear,350,2013-08-05 20:53:00
3:53 PM,87.1,53.1,31,29.83,10.0,WNW,10.4,16.1,N/A,,Clear,300,2013-08-05 21:53:00
4:53 PM,89.1,52.0,28,29.83,10.0,NNW,8.1,-,N/A,,Clear,330,2013-08-05 22:53:00
5:53 PM,84.9,53.1,33,29.83,10.0,NW,8.1,-,N/A,,Clear,310,2013-08-05 23:53:00
6:53 PM,77.0,53.1,43,29.87,10.0,NW,20.7,33.4,N/A,,Clear,320,2013-08-06 00:53:00
7:53 PM,73.9,55.9,53,29.88,10.0,West,26.5,34.5,N/A,,Partly Cloudy,280,2013-08-06 01:53:00
8:53 PM,73.0,54.0,51,29.86,10.0,ENE,11.5,-,N/A,,Partly Cloudy,60,2013-08-06 02:53:00
9:53 PM,68.0,55.9,65,29.88,10.0,ESE,9.2,-,N/A,,Partly Cloudy,120,2013-08-06 03:53:00
10:53 PM,64.0,60.1,87,29.90,10.0,SSE,10.4,-,N/A,,Clear,160,2013-08-06 04:53:00
11:53 PM,64.0,60.1,87,29.88,10.0,South,8.1,-,N/A,,Clear,190,2013-08-06 05:53:00